This is the latest recevied weather packets stored in our database for station/object N4CRH-13. If no packets are shown the sender has not sent any weather packets the latest 10 day(s).
| Time | Temp. | Humidity | Pressure | Rain* | Wind** | Luminosity | Snow |
|---|---|---|---|---|---|---|---|
| 1777974246 | 5° C | 96% | 1289 hPa | 0 mm | - | 0 W/m² | - |
| 1777973941 | 5° C | 95% | 1288.6 hPa | 0 mm | - | 0 W/m² | - |
| 1777973638 | 5° C | 94% | 1288.6 hPa | 0 mm | - | 0 W/m² | - |
| 1777973336 | 5° C | 94% | 1288.5 hPa | 0 mm | - | 0 W/m² | - |
| 1777973034 | 5.56° C | 94% | 1288.5 hPa | 0 mm | - | 0 W/m² | - |
| 1777972730 | 5.56° C | 93% | 1288.4 hPa | 0 mm | - | 0 W/m² | - |
| 1777972429 | 5.56° C | 92% | 1288.6 hPa | 0 mm | - | 0 W/m² | - |
| 1777972126 | 5.56° C | 91% | 1288.6 hPa | 0 mm | - | 0 W/m² | - |
| 1777971824 | 6.11° C | 89% | 1288.3 hPa | 0 mm | - | 0 W/m² | - |
| 1777971521 | 6.11° C | 89% | 1288.4 hPa | 0 mm | - | 0 W/m² | - |
| 1777971219 | 6.11° C | 90% | 1288.5 hPa | 0 mm | - | 0 W/m² | - |
| 1777970917 | 6.11° C | 89% | 1288.5 hPa | 0 mm | - | 0 W/m² | - |
| 1777970312 | 5.56° C | 92% | 1288.5 hPa | 0 mm | - | 0 W/m² | - |
| 1777970009 | 5° C | 95% | 1288.7 hPa | 0 mm | - | 0 W/m² | - |
| 1777969706 | 5° C | 97% | 1288.7 hPa | 0 mm | - | 0 W/m² | - |
| 1777969402 | 5° C | 97% | 1289.1 hPa | 0 mm | - | 0 W/m² | - |
| 1777969099 | 5° C | 97% | 1289 hPa | 0 mm | - | 0 W/m² | - |
| 1777968795 | 5° C | 98% | 1289.1 hPa | 0 mm | - | 0 W/m² | - |
| 1777968492 | 5° C | 98% | 1289.5 hPa | 0 mm | - | 0 W/m² | - |
| 1777968188 | 5° C | 98% | 1289.6 hPa | 0 mm | - | 0 W/m² | - |
| 1777967884 | 5.56° C | 98% | 1289.6 hPa | 0 mm | - | 0 W/m² | - |
| 1777967278 | 5.56° C | 98% | 1290.1 hPa | 0 mm | - | 0 W/m² | - |
| 1777966673 | 5.56° C | 98% | 1290.1 hPa | 0 mm | - | 0 W/m² | - |
| 1777966371 | 5.56° C | 98% | 1290.2 hPa | 1.78 mm | - | 0 W/m² | - |
| 1777966067 | 5.56° C | 98% | 1290.7 hPa | 1.78 mm | - | 0 W/m² | - |
* Rain latest hour (hover to see other rain measurements)
** Current wind speed in m/s (hover to see current wind gust speed)